WUK70 EPLB-EGGW

Flight info

Callsign WUK70
Flight time N/A
Altitude 34000
Route ARGIX T709 KOTEK DCT LASIS DCT GOBAX DCT ZUCKA DCT NOGRO M40 RINIS
Aircraft A321/M-SDE3FGHIRWY/LB1

Departure

Time N/A
Airport Lublin Airport (EPLB)

Arrival

Time 2026-04-28 20:18
Airport London Luton Airport (EGGW)
Time Latitude Longitude Altitude Speed Heading
2026-04-28 19:44 51.93003 2.63485 30213 ft 473 kts 265°
2026-04-28 19:44 51.92761 2.59974 29854 ft 471 kts 264°
2026-04-28 19:45 51.92272 2.52965 29167 ft 466 kts 264°
2026-04-28 19:45 51.92032 2.49524 28841 ft 463 kts 264°
2026-04-28 19:45 51.91672 2.44356 28358 ft 459 kts 264°
2026-04-28 19:45 51.91315 2.39260 27887 ft 454 kts 264°
2026-04-28 19:46 51.90959 2.34194 27426 ft 451 kts 264°
2026-04-28 19:46 51.90654 2.29164 26978 ft 446 kts 266°
2026-04-28 19:46 51.90472 2.24171 26545 ft 442 kts 269°
2026-04-28 19:46 51.90373 2.19216 26129 ft 439 kts 270°
2026-04-28 19:47 51.90310 2.14286 25725 ft 435 kts 270°
2026-04-28 19:47 51.90247 2.09402 25341 ft 432 kts 270°
2026-04-28 19:47 51.90166 2.04553 24961 ft 429 kts 269°
2026-04-28 19:47 51.90066 1.99740 24579 ft 426 kts 269°
2026-04-28 19:48 51.89992 1.94969 24192 ft 422 kts 274°
2026-04-28 19:48 51.90409 1.90316 23810 ft 415 kts 288°
2026-04-28 19:48 51.91445 1.86021 23337 ft 406 kts 302°
2026-04-28 19:48 51.92986 1.82331 22865 ft 397 kts 314°
2026-04-28 19:49 51.94781 1.78885 22380 ft 394 kts 314°
2026-04-28 19:49 51.96542 1.75496 21914 ft 391 kts 314°
2026-04-28 19:49 51.98285 1.72125 21449 ft 389 kts 314°
2026-04-28 19:49 51.99990 1.68820 20992 ft 386 kts 314°
2026-04-28 19:50 52.03430 1.62134 20072 ft 381 kts 313°
2026-04-28 19:50 52.05099 1.58880 19645 ft 378 kts 313°
2026-04-28 19:50 52.06776 1.55602 19204 ft 376 kts 313°
2026-04-28 19:51 52.08441 1.52338 18771 ft 374 kts 313°
2026-04-28 19:51 52.10098 1.49088 18301 ft 371 kts 313°
2026-04-28 19:51 52.11741 1.45869 17812 ft 369 kts 313°
2026-04-28 19:51 52.13372 1.42678 17342 ft 366 kts 313°
2026-04-28 19:52 52.14920 1.39406 16870 ft 365 kts 304°
2026-04-28 19:52 52.15997 1.35678 16415 ft 365 kts 287°
2026-04-28 19:52 52.16488 1.31622 15952 ft 364 kts 280°
2026-04-28 19:52 52.16893 1.27564 15502 ft 362 kts 279°
2026-04-28 19:53 52.17284 1.23536 15074 ft 359 kts 279°
2026-04-28 19:53 52.17666 1.19532 14654 ft 357 kts 279°
2026-04-28 19:53 52.18043 1.15547 14239 ft 354 kts 279°
2026-04-28 19:53 52.18416 1.11597 13786 ft 352 kts 279°
2026-04-28 19:54 52.18786 1.07687 13323 ft 349 kts 279°
2026-04-28 19:54 52.19157 1.03776 12875 ft 347 kts 279°
2026-04-28 19:54 52.19520 0.99901 12434 ft 344 kts 279°
2026-04-28 19:54 52.19876 0.96054 12003 ft 342 kts 279°
2026-04-28 19:55 52.20227 0.92232 11578 ft 340 kts 278°
2026-04-28 19:55 52.20507 0.88419 11165 ft 338 kts 276°
2026-04-28 19:55 52.20760 0.84631 10758 ft 336 kts 276°
2026-04-28 19:55 52.21008 0.80859 10364 ft 333 kts 276°
2026-04-28 19:56 52.21254 0.77112 9940 ft 331 kts 276°
2026-04-28 19:56 52.21497 0.73396 9505 ft 329 kts 276°
2026-04-28 19:56 52.21737 0.69698 9073 ft 327 kts 276°
2026-04-28 19:56 52.21975 0.66020 8661 ft 325 kts 276°
2026-04-28 19:57 52.22210 0.62360 8238 ft 323 kts 276°
2026-04-28 19:57 52.22441 0.58732 8077 ft 321 kts 276°
2026-04-28 19:57 52.22668 0.55088 8093 ft 323 kts 276°
2026-04-28 19:57 52.22896 0.51440 8094 ft 324 kts 276°
2026-04-28 19:58 52.23124 0.47786 8094 ft 324 kts 276°
2026-04-28 19:58 52.23350 0.44124 8092 ft 324 kts 276°
2026-04-28 19:58 52.23577 0.40469 8096 ft 324 kts 276°
2026-04-28 19:58 52.23805 0.36818 8094 ft 324 kts 276°
2026-04-28 19:59 52.24029 0.33158 8098 ft 324 kts 276°
2026-04-28 19:59 52.24251 0.29497 8098 ft 324 kts 276°
2026-04-28 19:59 52.24477 0.25843 8095 ft 324 kts 276°
2026-04-28 19:59 52.24702 0.22180 8096 ft 324 kts 276°
2026-04-28 20:00 52.24924 0.18519 8098 ft 324 kts 276°
2026-04-28 20:00 52.25144 0.14851 8100 ft 324 kts 276°
2026-04-28 20:00 52.25367 0.11187 8101 ft 325 kts 276°
2026-04-28 20:00 52.25589 0.07518 8103 ft 325 kts 276°
2026-04-28 20:01 52.25809 0.03841 8033 ft 324 kts 276°
2026-04-28 20:01 52.25891 0.00167 8022 ft 324 kts 262°
2026-04-28 20:01 52.25232 -0.03285 8027 ft 323 kts 243°
2026-04-28 20:01 52.24246 -0.06572 8025 ft 323 kts 241°
2026-04-28 20:02 52.23232 -0.09841 8025 ft 323 kts 241°
2026-04-28 20:02 52.22217 -0.13105 8024 ft 323 kts 241°
2026-04-28 20:02 52.21199 -0.16369 8023 ft 323 kts 241°
2026-04-28 20:02 52.20181 -0.19632 7978 ft 321 kts 241°
2026-04-28 20:03 52.19185 -0.22826 7765 ft 312 kts 241°
2026-04-28 20:03 52.18205 -0.25965 7422 ft 309 kts 241°
2026-04-28 20:03 52.17230 -0.29066 7053 ft 307 kts 241°
2026-04-28 20:03 52.16259 -0.32152 6671 ft 306 kts 241°
2026-04-28 20:04 52.15287 -0.35239 6260 ft 305 kts 241°
2026-04-28 20:04 52.14318 -0.38292 6021 ft 302 kts 241°
2026-04-28 20:04 52.13349 -0.41349 6010 ft 305 kts 241°
2026-04-28 20:04 52.12377 -0.44414 6008 ft 305 kts 241°
2026-04-28 20:05 52.11402 -0.47491 6009 ft 306 kts 241°
2026-04-28 20:05 52.10432 -0.50549 5740 ft 304 kts 241°
2026-04-28 20:05 52.09464 -0.53598 5362 ft 303 kts 241°
2026-04-28 20:05 52.08495 -0.56637 5039 ft 300 kts 241°
2026-04-28 20:06 52.07523 -0.59645 5010 ft 302 kts 238°
2026-04-28 20:06 52.06235 -0.62296 5006 ft 295 kts 223°
2026-04-28 20:06 52.04815 -0.64590 4910 ft 283 kts 221°
2026-04-28 20:06 52.03436 -0.66785 4769 ft 273 kts 221°
2026-04-28 20:07 52.02106 -0.68908 4642 ft 263 kts 221°
2026-04-28 20:07 52.01254 -0.70276 4556 ft 257 kts 221°
2026-04-28 20:07 51.99618 -0.72923 4372 ft 244 kts 221°
2026-04-28 20:07 51.98444 -0.74836 4214 ft 235 kts 221°
2026-04-28 20:08 51.97292 -0.76710 4014 ft 235 kts 221°
2026-04-28 20:08 51.96134 -0.78592 4002 ft 236 kts 220°
2026-04-28 20:08 51.94795 -0.80025 3998 ft 227 kts 196°
2026-04-28 20:08 51.93364 -0.80887 3903 ft 214 kts 192°
2026-04-28 20:09 51.91975 -0.81523 3716 ft 200 kts 174°
2026-04-28 20:09 51.90614 -0.81403 3441 ft 189 kts 163°
2026-04-28 20:09 51.89333 -0.81072 3083 ft 183 kts 155°
2026-04-28 20:09 51.88121 -0.80494 3005 ft 183 kts 151°
2026-04-28 20:10 51.86906 -0.79853 2999 ft 184 kts 151°
2026-04-28 20:10 51.85705 -0.79211 2997 ft 185 kts 151°
2026-04-28 20:10 51.84468 -0.78550 3000 ft 185 kts 151°
2026-04-28 20:10 51.83337 -0.77738 3000 ft 174 kts 133°
2026-04-28 20:11 51.82620 -0.76270 2999 ft 160 kts 105°
2026-04-28 20:11 51.82457 -0.74543 3003 ft 153 kts 81°
2026-04-28 20:11 51.82635 -0.72851 2999 ft 153 kts 78°
2026-04-28 20:11 51.82765 -0.71146 3007 ft 154 kts 84°
2026-04-28 20:12 51.82791 -0.69417 3003 ft 154 kts 86°
2026-04-28 20:12 51.82808 -0.67715 3014 ft 153 kts 86°
2026-04-28 20:12 51.82822 -0.66092 3014 ft 139 kts 86°
2026-04-28 20:12 51.82829 -0.65051 3009 ft 136 kts 86°
2026-04-28 20:13 51.82985 -0.63076 3008 ft 134 kts 76°
2026-04-28 20:13 51.83213 -0.61625 2995 ft 131 kts 74°
2026-04-28 20:13 51.83444 -0.60247 2579 ft 125 kts 73°
2026-04-28 20:13 51.83677 -0.58874 2153 ft 127 kts 72°
2026-04-28 20:14 51.83915 -0.57473 2035 ft 131 kts 71°
2026-04-28 20:14 51.84157 -0.56044 2007 ft 133 kts 71°
2026-04-28 20:14 51.84403 -0.54598 2010 ft 134 kts 72°
2026-04-28 20:14 51.84648 -0.53147 2010 ft 133 kts 72°
2026-04-28 20:15 51.84886 -0.51735 1857 ft 126 kts 72°
2026-04-28 20:15 51.85120 -0.50353 1545 ft 131 kts 71°
2026-04-28 20:15 51.85372 -0.48887 1586 ft 137 kts 71°
2026-04-28 20:15 51.85627 -0.47417 1582 ft 131 kts 70°
2026-04-28 20:16 51.85859 -0.46079 1483 ft 114 kts 70°
2026-04-28 20:16 51.86062 -0.44911 1235 ft 105 kts 69°
2026-04-28 20:16 51.86260 -0.43777 1051 ft 110 kts 69°
2026-04-28 20:16 51.86475 -0.42536 1005 ft 117 kts 72°
2026-04-28 20:17 51.86673 -0.41232 878 ft 120 kts 69°
2026-04-28 20:17 51.86913 -0.39925 781 ft 124 kts 70°
2026-04-28 20:17 51.87146 -0.38615 599 ft 119 kts 68°
2026-04-28 20:17 51.87375 -0.37351 525 ft 110 kts 76°
2026-04-28 20:18 51.87536 -0.36426 522 ft 49 kts 75°
2026-04-28 20:18 51.87583 -0.36152 518 ft 27 kts 74°
2026-04-28 20:18 51.87623 -0.35941 516 ft 8 kts 58°
2026-04-28 20:18 51.87674 -0.35923 516 ft 9 kts 349°
2026-04-28 20:19 51.87739 -0.35955 516 ft 11 kts 336°
2026-04-28 20:19 51.87781 -0.36054 518 ft 11 kts 275°
2026-04-28 20:19 51.87766 -0.36179 518 ft 12 kts 256°
2026-04-28 20:19 51.87741 -0.36328 518 ft 15 kts 254°
2026-04-28 20:20 51.87711 -0.36493 520 ft 16 kts 253°
2026-04-28 20:20 51.87677 -0.36695 522 ft 21 kts 254°
2026-04-28 20:20 51.87688 -0.36854 522 ft 15 kts 328°
2026-04-28 20:20 51.87819 -0.36923 513 ft 25 kts 344°
2026-04-28 20:21 51.87947 -0.36994 512 ft 15 kts 340°
2026-04-28 20:21 51.88032 -0.37124 508 ft 15 kts 310°
2026-04-28 20:21 51.88149 -0.37201 514 ft 19 kts 342°
2026-04-28 20:21 51.88235 -0.37289 517 ft 5 kts 276°
2026-04-28 20:22 51.88222 -0.37367 517 ft 9 kts 253°
2026-04-28 20:22 51.88205 -0.37460 516 ft 5 kts 262°
2026-04-28 20:22 51.88203 -0.37486 516 ft 2 kts 255°
2026-04-28 20:22 51.88194 -0.37504 516 ft 2 kts 218°
2026-04-28 20:23 51.88186 -0.37507 516 ft 0 kts 185°
2026-04-28 20:23 51.88181 -0.37505 516 ft 1 kts 166°
2026-04-28 20:23 51.88162 -0.37493 517 ft 1 kts 160°
2026-04-28 20:23 51.88155 -0.37490 517 ft 1 kts 161°
2026-04-28 20:24 51.88146 -0.37485 517 ft 1 kts 162°
2026-04-28 20:24 51.88144 -0.37484 517 ft 0 kts 161°